Details for AirAsia at WMKP




Go Back


Latest METAR
Local Time

WMKP 252200Z 05004KT 8000 FEW017CB SCT140 BKN270 27/25 Q1007 NOSIG

26/05/2018, 06:17:25

Description
Results
AirAsia Logo
Number of Pilots based at WMKP
0 Pilots Based here
Number of AirAsia Flights Departed from WMKP
0 Flights Departed
Number of AirAsia Flights Arrived at WMKP
0 Flights Arrived
Number of AirAsia Schedules Departing from WMKP
35 Schedules
Number of AirAsia Schedules Arriving at WMKP
34 Schedules
Number of AirAsia Schedules Departing from WMKP availible today
30 Schedules Today
Number of AirAsia Schedules Arriving at WMKP availible today
30 Schedules Today
Average Landing Rate at WMKP
0 fpm
AirAsia Average Landing Rate at WMKP
0 fpm
Total Fuel Purchased at WMKP by AirAsia
0.00 kgs / 0.00 lbs

Pilots Based at WMKP


Pilot ID
Pilot Name
Pilot Rank
No. of Flights
No. of Flying Hours
There are no pilots assigned to this hub!   Will you be the first?
Content